Showing default

FLOCK 4G 28, 62634

Orbit data source: Space-Track

FLOCK 4G 28, 62634 is a payload satellite owned by Planet (US) in SSO that was launched on Tue, 14 Jan 2025 UTC via an FALCON 9 launch vehicle from the Air Force Western Test Range (AFWTR). Payload-class satellites include a variety of spacecraft equipped with specific instruments for various scientific and technological missions. These include communications satellites like Starlink; space stations such as the ISS; scientific satellites like the Hubble; Earth observation satellites from companies like Planet Labs, Umbra, and HawkEye 360; GPS; miniature CubeSats for education and research; and military/defense satellites.

Loading next visibility...
Identifier
62634, 2025-009AB
Orbit
SSO
Last TLE update
16 hours ago
Origin
Manufacturer
Planet
Mission
Operational Commercial Imaging
Bus & Motor
CUBESAT 3U, Unknown motor
Mass
5.7 kg wet, 5.7 kg dry
Launch date (UTC)
2025-01-14 (6 months ago)
Launch vehicle
FALCON 9
Launch site
Air Force Western Test Range (AFWTR)
Object type
Payload
Rocket body
Debris
Shape & HBR
Box + 2 Pan, 0.3 m
Radar Cross Section
0.035 m², Medium (>0.1 m² and < 1m²)

Expand to show TLE details & history

TLE from 16 hours ago
0 FLOCK 4G 28
1 62634U 25009AB  25186.17659181  .00006709  00000-0  30260-3 0  9993
2 62634  97.4325 266.3563 0005676  91.6389 268.5497 15.21327553 26029
Epoch: 2025-07-05T04:14Z
TLE epoch observation values (Epoch: 2025-07-05T04:14:17.532Z)
Latitude
-0.00001°
Longitude
-80.63514°
Altitude
505.028 km
Speed
7.612 km/s
True Right ascension
17h 45m 25s
True Declination
0° 00' 00"
Sunlit
Object was in full shadow at epoch
Visualization orbit readout
Latitude
-42.68995°
Longitude
-73.12023°
Altitude
520.912 km
Speed
7.6 km/s
Apparent Right ascension
18h 59m 51s
Apparent Declination
-41° 43' 51"
Sunlit
Object is in full shadow
Visualization observer readout
Local Sidereal Time
07:45:53
Azimuth
105.502° ESE
Elevation
-81.113°
Doppler factor
1
Orbital elements
Apogee altitude
502.704 km
Perigee altitude
494.897 km
Semi-major axis
6,876.937 km
Eccentricity
0.00057
Inclination
97.4325°
RAAN
266.3563°
Arg. of periapsis
91.6389°
True anomaly
Unknown
Mean anomaly
268.5497°
Eccentric anomaly
Unknown
Mean motion
3.80584 °/min
Orbital period
94.59 mins
BSTAR
0.0003026
Loading maneuver chart data...
Loading SW <> Apogee altitude chart data...
Loading historical data...
Loading historical data...
Loading historical data...
Loading historical data...
Loading historical data...
Loading historical data...
Loading historical data...

FLOCK 4G 28 Visibility forecast

Observer location: undefined°, undefined°

Span
Click to sort rows by Start time (UTC) header in descending order
Start Az.
Max El. time (UTC)
Max El. Az.
Max El.
End time (UTC)
End Az.
6 mins2025-07-06 05:37:07.358Z180.802° SSW2025-07-06 05:40:07.358Z255.991° W40.643°2025-07-06 05:43:07.358Z337.982° N
5 mins2025-07-06 18:42:07.358Z338.621° N2025-07-06 18:44:07.358Z271.804° WNW31.257°2025-07-06 18:47:07.358Z218.067° SW
|